Weather History for Kearney, NE

Change the Weather History Date:

Wednesday, July 4, 2012

  Actual Average Record
Temperature  
Mean Temperature 87 °F 74 °F  
Max Temperature 100 °F 87 °F 106 °F (1936)
Min Temperature 73 °F 62 °F 44 °F (1997)
Degree Days  
Heating Degree Days 0 0  
Month to date heating degree days 0  
Since 1 June heating degree days 35  
Since 1 July heating degree days 0  
Cooling Degree Days 22 9  
Month to date cooling degree days 36  
Year to date cooling degree days 262  
Since 1 June cooling degree days 215  
Growing Degree Days 36 (Base 50)    
Moisture  
Dew Point 65 °F    
Average Humidity 49    
Maximum Humidity 64    
Minimum Humidity 33    
Precipitation  
Precipitation 0.00 in - 2.00 in (2000)
Sea Level Pressure  
Sea Level Pressure 29.81 in    
Wind  
Wind Speed 14 mph (South)    
Max Wind Speed 18 mph    
Max Gust Speed 24 mph    
Visibility 10 miles    
Events      
T = Trace of Precipitation, MM = Missing Value Source: NWS Daily Summary

Daily Weather History Graph

Daily Weather History Graph

Search for Another Location

Airport:

Trip Planner

Search our weather history database for the weather conditions in past years. The results will help you decide how hot, cold, wet, or windy it might be!

Date:

Astronomy

Jul. 04, 2012 Rise Set
Actual Time 6:10 AM CDT 9:10 PM CDT
Civil Twilight 5:37 AM CDT 9:43 PM CDT
Nautical Twilight 4:55 AM CDT 10:25 PM CDT
Astronomical Twilight 4:06 AM CDT 11:14 PM CDT
Moon 9:49 PM CDT (7/4) 7:15 AM CDT (7/4)
Length of Visible Light 16h 06m
Length of Day
15h 00m
Full, 99% of the Moon is Illuminated
Jul 4
Full
Jul 10
Last Quarter
Jul 18
New
Jul 26
First Quarter
Aug 1
Full

Hourly Weather History & Observations

Time (CDT) Temp. Heat Index Dew Point Humidity Pressure Visibility Wind Dir Wind Speed Gust Speed Precip Events Conditions
12:15 AM 80.6 °F 81.8 °F 62.6 °F 54% 29.81 in 10.0 mi South 13.8 mph - N/A   Clear
12:35 AM 80.6 °F 81.8 °F 62.6 °F 54% 29.80 in 10.0 mi South 13.8 mph - N/A   Clear
12:55 AM 78.8 °F - 62.6 °F 57% 29.80 in 10.0 mi South 12.7 mph - N/A   Clear
1:15 AM 78.8 °F - 62.6 °F 57% 29.81 in 10.0 mi South 10.4 mph - N/A   Clear
1:35 AM 77.0 °F - 62.6 °F 61% 29.81 in 10.0 mi South 10.4 mph - N/A   Clear
1:55 AM 78.8 °F - 62.6 °F 57% 29.81 in 10.0 mi South 11.5 mph - N/A   Clear
2:15 AM 78.8 °F - 62.6 °F 57% 29.81 in 10.0 mi South 11.5 mph - N/A   Clear
2:35 AM 77.0 °F - 62.6 °F 61% 29.81 in 10.0 mi South 12.7 mph - N/A   Clear
2:55 AM 77.0 °F - 62.6 °F 61% 29.81 in 10.0 mi South 15.0 mph 19.6 mph N/A   Clear
3:15 AM 77.0 °F - 62.6 °F 61% 29.81 in 10.0 mi South 15.0 mph - N/A   Clear
3:35 AM 77.0 °F - 60.8 °F 57% 29.81 in 10.0 mi South 15.0 mph - N/A   Clear
3:55 AM 75.2 °F - 60.8 °F 61% 29.81 in 10.0 mi South 13.8 mph - N/A   Clear
4:15 AM 75.2 °F - 60.8 °F 61% 29.81 in 10.0 mi South 12.7 mph - N/A   Clear
4:35 AM 75.2 °F - 60.8 °F 61% 29.81 in 10.0 mi South 12.7 mph - N/A   Clear
4:55 AM 75.2 °F - 60.8 °F 61% 29.81 in 10.0 mi South 12.7 mph - N/A   Clear
5:15 AM 75.2 °F - 60.8 °F 61% 29.81 in 10.0 mi South 12.7 mph - N/A   Partly Cloudy
5:35 AM 73.4 °F - 60.8 °F 65% 29.81 in 10.0 mi South 12.7 mph - N/A   Partly Cloudy
5:55 AM 73.4 °F - 60.8 °F 65% 29.81 in 10.0 mi South 13.8 mph - N/A   Scattered Clouds
6:15 AM 73.4 °F - 60.8 °F 65% 29.82 in 10.0 mi South 9.2 mph - N/A   Mostly Cloudy
6:35 AM 73.4 °F - 60.8 °F 65% 29.82 in 10.0 mi South 10.4 mph - N/A   Partly Cloudy
6:55 AM 73.4 °F - 60.8 °F 65% 29.83 in 10.0 mi South 10.4 mph - N/A   Clear
7:15 AM 73.4 °F - 60.8 °F 65% 29.83 in 10.0 mi South 6.9 mph - N/A   Clear
7:35 AM 73.4 °F - 62.6 °F 69% 29.83 in 10.0 mi South 8.1 mph - N/A   Clear
7:55 AM 75.2 °F - 62.6 °F 65% 29.83 in 10.0 mi South 11.5 mph - N/A   Clear
8:15 AM 77.0 °F - 60.8 °F 57% 29.83 in 10.0 mi South 12.7 mph - N/A   Clear
8:35 AM 78.8 °F - 60.8 °F 54% 29.84 in 10.0 mi South 15.0 mph - N/A   Clear
8:55 AM 78.8 °F - 60.8 °F 54% 29.84 in 10.0 mi South 17.3 mph 23.0 mph N/A   Clear
9:15 AM 80.6 °F 81.8 °F 62.6 °F 54% 29.84 in 10.0 mi South 17.3 mph 24.2 mph N/A   Clear
9:35 AM 80.6 °F 81.8 °F 62.6 °F 54% 29.84 in 10.0 mi South 15.0 mph 20.7 mph N/A   Clear
9:55 AM 82.4 °F 83.9 °F 64.4 °F 54% 29.83 in 10.0 mi South 16.1 mph 20.7 mph N/A   Clear
10:15 AM 84.2 °F 85.6 °F 64.4 °F 51% 29.82 in 10.0 mi South 17.3 mph 23.0 mph N/A   Clear
10:35 AM 84.2 °F 85.6 °F 64.4 °F 51% 29.82 in 10.0 mi South 17.3 mph - N/A   Clear
10:55 AM 87.8 °F 89.4 °F 64.4 °F 46% 29.83 in 10.0 mi SSW 18.4 mph 24.2 mph N/A   Clear
11:15 AM 87.8 °F 90.4 °F 66.2 °F 49% 29.83 in 10.0 mi South 16.1 mph 20.7 mph N/A   Clear
11:35 AM 89.6 °F 92.2 °F 66.2 °F 46% 29.83 in 10.0 mi SSW 19.6 mph 23.0 mph N/A   Clear
11:55 AM 89.6 °F 92.2 °F 66.2 °F 46% 29.82 in 10.0 mi South 18.4 mph - N/A   Clear
12:15 PM 91.4 °F 95.4 °F 68.0 °F 46% 29.82 in 10.0 mi South 16.1 mph - N/A   Clear
12:35 PM 91.4 °F 95.4 °F 68.0 °F 46% 29.82 in 10.0 mi South 15.0 mph - N/A   Clear
12:55 PM 93.2 °F 97.7 °F 68.0 °F 44% 29.82 in 10.0 mi South 17.3 mph 21.9 mph N/A   Clear
1:15 PM 95.0 °F 99.5 °F 68.0 °F 41% 29.82 in 10.0 mi South 17.3 mph 23.0 mph N/A   Clear
1:35 PM 96.8 °F 101.8 °F 68.0 °F 39% 29.82 in 10.0 mi South 17.3 mph - N/A   Clear
1:55 PM 96.8 °F 101.8 °F 68.0 °F 39% 29.81 in 10.0 mi South 17.3 mph - N/A   Clear
2:15 PM 98.6 °F 104.1 °F 68.0 °F 37% 29.81 in 10.0 mi South 17.3 mph 20.7 mph N/A   Clear
2:35 PM 98.6 °F 102.8 °F 66.2 °F 35% 29.81 in 10.0 mi South 18.4 mph - N/A   Clear
2:55 PM 98.6 °F 104.1 °F 68.0 °F 37% 29.81 in 10.0 mi South 17.3 mph 23.0 mph N/A   Clear
3:15 PM 98.6 °F 102.8 °F 66.2 °F 35% 29.80 in 10.0 mi South 18.4 mph 23.0 mph N/A   Clear
3:35 PM 100.4 °F 106.3 °F 68.0 °F 35% 29.80 in 10.0 mi South 15.0 mph 23.0 mph N/A   Clear
3:55 PM 100.4 °F 107.8 °F 69.8 °F 37% 29.80 in 10.0 mi South 17.3 mph 23.0 mph N/A   Clear
4:15 PM 100.4 °F 104.9 °F 66.2 °F 33% 29.80 in 10.0 mi South 11.5 mph - N/A   Clear
4:35 PM 100.4 °F 106.3 °F 68.0 °F 35% 29.79 in 10.0 mi South 16.1 mph - N/A   Clear
4:55 PM 100.4 °F 104.9 °F 66.2 °F 33% 29.78 in 10.0 mi South 16.1 mph 20.7 mph N/A   Clear
5:15 PM 100.4 °F 104.9 °F 66.2 °F 33% 29.78 in 10.0 mi South 12.7 mph 20.7 mph N/A   Clear
5:35 PM 100.4 °F 106.3 °F 68.0 °F 35% 29.77 in 10.0 mi South 13.8 mph - N/A   Clear
5:55 PM 98.6 °F 102.8 °F 66.2 °F 35% 29.77 in 10.0 mi South 16.1 mph - N/A   Clear
6:15 PM 98.6 °F 105.5 °F 69.8 °F 39% 29.77 in 10.0 mi South 11.5 mph - N/A   Clear
6:35 PM 98.6 °F 105.5 °F 69.8 °F 39% 29.77 in 10.0 mi South 12.7 mph - N/A   Clear
6:55 PM 96.8 °F 103.1 °F 69.8 °F 41% 29.77 in 10.0 mi South 11.5 mph - N/A   Clear
7:15 PM 95.0 °F 101.3 °F 69.8 °F 44% 29.78 in 10.0 mi South 10.4 mph - N/A   Clear
7:35 PM 91.4 °F 96.8 °F 69.8 °F 49% 29.78 in 10.0 mi SSE 10.4 mph - N/A   Clear
7:55 PM 89.6 °F 94.7 °F 69.8 °F 52% 29.79 in 10.0 mi SSE 8.1 mph - N/A   Clear
8:15 PM 87.8 °F 92.6 °F 69.8 °F 55% 29.79 in 10.0 mi SSE 9.2 mph - N/A   Clear
8:35 PM 87.8 °F 92.6 °F 69.8 °F 55% 29.79 in 10.0 mi SSE 10.4 mph - N/A   Clear
8:55 PM 86.0 °F 89.4 °F 68.0 °F 55% 29.80 in 10.0 mi SSE 9.2 mph - N/A   Clear
9:15 PM 84.2 °F 86.6 °F 66.2 °F 55% 29.80 in 10.0 mi SSE 9.2 mph - N/A   Clear
9:35 PM 84.2 °F 86.6 °F 66.2 °F 55% 29.80 in 10.0 mi SSE 9.2 mph - N/A   Clear
9:55 PM 84.2 °F 85.6 °F 64.4 °F 51% 29.81 in 10.0 mi SSE 10.4 mph - N/A   Clear
10:15 PM 84.2 °F 85.6 °F 64.4 °F 51% 29.82 in 10.0 mi SSE 10.4 mph - N/A   Clear
10:35 PM 82.4 °F 83.9 °F 64.4 °F 54% 29.84 in 10.0 mi SSE 9.2 mph - N/A   Clear
10:55 PM 82.4 °F 83.4 °F 62.6 °F 51% 29.84 in 10.0 mi South 11.5 mph - N/A   Clear
11:35 PM 84.2 °F 85.0 °F 62.6 °F 48% 29.86 in 10.0 mi South 11.5 mph - N/A   Mostly Cloudy
11:55 PM 84.2 °F 84.4 °F 60.8 °F 45% 29.87 in 10.0 mi South 11.5 mph - N/A   Overcast